FENGYUN 1C DEB, 32093

Orbit data source: Space-Track

FENGYUN 1C DEB, 32093 is space debris in SSO originally from a launch on Mon, 10 May 1999 UTC launched from the Taiyaun Space Center, China (TSC). Fengyun 1C debris stems from the Chinese weather satellite Fengyun-1C, which was intentionally destroyed by a Chinese anti-satellite missile in 2007. This event dramatically increased the amount of space debris, with thousands of trackable fragments posing hazards to satellites and human spaceflight. The Fengyun 1C debris cloud has become a focal point in discussions about space sustainability and the need for international regulations to prevent the creation of new debris.

Loading next visibility...
Identifier
32093, 1999-025CQK
Orbit
SSO
Country
Flag of CNCN / PRC
Related business
Manufacturer
Unknown
Mission
Spacecraft
Bus & Motor
Unknown
Mass
Unknown
Launch date (UTC)
1999-05-10 (27 years ago)
Launch vehicle
Unknown
Launch site
Taiyaun Space Center, China (TSC)
Object type
Payload
Rocket body
Debris
Shape & HBR
Unknown shape, 0.1 m
Radar Cross Section
Small (<0.1 m²)

Expand to show TLE details & history
Last TLE update: 2 days ago

TLE from 2 days ago
0 FENGYUN 1C DEB
1 32093U 99025CQK 26170.58949990  .00000671  00000-0  22913-3 0  9995
2 32093  98.9006  35.3886 0078833 155.2293 205.2710 14.38073113992312
Epoch: 2026-06-19T14:08Z
TLE epoch observation values (Epoch: 2026-06-19T14:08:52.791Z)
Latitude
-0.00004°
Longitude
-84.64766°
Altitude
818.817 km
Speed
7.417 km/s
True Right ascension
02h 21m 33s
True Declination
0° 00' 00"
Sunlit
Object was in daylight at epoch
Visualization orbit readout
Latitude
Unknown
Longitude
Unknown
Altitude
Unknown
Speed
Unknown
Apparent Right ascension
Unknown
Apparent Declination
Unknown
Sunlit
N/A
Visualization observer readout
Local Sidereal Time
02:43:34
Azimuth
Unknown
Elevation
Unknown
Doppler factor
Unknown
Orbital elements
Apogee altitude
818.303 km
Perigee altitude
705.728 km
Semi-major axis
7,140.153 km
Eccentricity
0.00788
Inclination
98.9006°
RAAN
35.3886°
Arg. of periapsis
155.2293°
True anomaly
204.88877°
Mean anomaly
205.271°
Eccentric anomaly
205.07954°
Mean motion
3.59734 °/min
Orbital period
100.07 mins
BSTAR
0.00022913
Loading maneuver chart data...
Computing Atmospheric mass density...

Documentation

Showing up to 5 results
|